BEIDOU-2 IGSO-7 (C16)

Last updated on Thu Nov 21 2024 00:03:16 GMT+0000 (Coordinated Universal Time)

1 43539U 18057A 24325.50831780 -.00000077 00000+0 00000+0 0 9996 2 43539 55.1497 168.0247 0078040 232.2625 315.5332 1.00264189 23385
UTC large
Height (km)
Speed (km/s)
/
Latitude / Longitude
Inclination (degrees)
Orbital Period (minutes)
Azimuth
Elevation
Range (km)
Doppler Factor

Next 0 passes for location: London (51.5072 / 0.1276)

Sorry there are no passes over London.